STARLINK-37031

operational
NORAD ID: 70109 Constellation: starlink
LEOCIRCULAR

STARLINK-37031について

説明を読み込み中...

リアルタイム位置

3D地球を読み込み中...

次回通過

高度履歴

Altitude vs Time

uPlot chart will show altitude changes over time

軌道要素

1 70109C 26050F 26073.73243056 .00559790 00000+0 73669-3 0 739
2 70109 53.1639 257.6157 0011414 268.1396 224.8131 16.05414708 13
Epoch: Mar 14, 2026 • Age: 47 hours

現在のステータス

高度 268.6 km
速度 7.75 km/s
衛星直下点 50.86°N, 158.57°W
打ち上げ日 Mar 14, 2026
運用期間 1 days
タイプ internet

大規模コンステレーション

Loading constellations...